| time (UTC) | temp C | wind direction | speed KPH | gust KPH | rain 1hr cm | rain 24hr cm | rain mn cm | humidity % | barometer mb |
| 20260505003748 | 16 | 135 | 0.0 | 0.0 | 0.00 | 0.00 | 0.00 | 46 | 1007.9 |
| 20260505003246 | 16 | 134 | 1.6 | 1.6 | 0.00 | 0.00 | 0.00 | 46 | 1007.9 |
| 20260505002742 | 16 | 141 | 0.0 | 0.0 | 0.00 | 0.00 | 0.00 | 45 | 1007.8 |
| 20260505002239 | 16 | 169 | 1.6 | 3.2 | 0.00 | 0.00 | 0.00 | 44 | 1007.5 |
| 20260505001737 | 16 | 212 | 4.8 | 4.8 | 0.00 | 0.00 | 0.00 | 44 | 1007.6 |
| 20260505001234 | 16 | 165 | 1.6 | 3.2 | 0.00 | 0.00 | 0.00 | 44 | 1007.5 |
| 20260505000731 | 16 | 151 | 1.6 | 3.2 | 0.00 | 0.00 | 0.00 | 43 | 1007.5 |
| 20260505000229 | 16 | 137 | 0.0 | 1.6 | 0.00 | 0.00 | 0.00 | 43 | 1007.2 |
| 20260504235725 | 17 | 201 | 1.6 | 3.2 | 0.00 | 0.00 | 0.00 | 44 | 1007.0 |
| 20260504235221 | 17 | 210 | 6.4 | 9.7 | 0.00 | 0.00 | 0.00 | 43 | 1007.1 |
| 20260504234719 | 17 | 200 | 3.2 | 3.2 | 0.00 | 0.00 | 0.00 | 43 | 1006.9 |
| 20260504234216 | 17 | 191 | 3.2 | 4.8 | 0.00 | 0.00 | 0.00 | 43 | 1006.8 |
| 20260504233712 | 17 | 211 | 4.8 | 6.4 | 0.00 | 0.00 | 0.00 | 42 | 1006.6 |
| 20260504233208 | 17 | 112 | 0.0 | 1.6 | 0.00 | 0.00 | 0.00 | 41 | 1006.8 |
| 20260504232705 | 17 | 200 | 6.4 | 9.7 | 0.00 | 0.00 | 0.00 | 40 | 1006.7 |
| 20260504232202 | 17 | 153 | 1.6 | 1.6 | 0.00 | 0.00 | 0.00 | 41 | 1006.5 |
| 20260504231659 | 18 | 212 | 9.7 | 12.9 | 0.00 | 0.00 | 0.00 | 40 | 1006.3 |
| 20260504231155 | 18 | 163 | 1.6 | 1.6 | 0.00 | 0.00 | 0.00 | 39 | 1006.4 |
| 20260504230651 | 18 | 105 | 0.0 | 1.6 | 0.00 | 0.00 | 0.00 | 39 | 1006.2 |
| 20260504230150 | 18 | 139 | 0.0 | 1.6 | 0.00 | 0.00 | 0.00 | 39 | 1006.2 |
| 20260504225648 | 18 | 216 | 6.4 | 11.3 | 0.00 | 0.00 | 0.00 | 38 | 1006.1 |
| 20260504225144 | 18 | 217 | 3.2 | 4.8 | 0.00 | 0.00 | 0.00 | 37 | 1006.1 |
| 20260504224641 | 19 | 194 | 3.2 | 4.8 | 0.00 | 0.00 | 0.00 | 37 | 1005.9 |
| 20260504224137 | 19 | 143 | 0.0 | 1.6 | 0.00 | 0.00 | 0.00 | 37 | 1005.7 |
| 20260504223635 | 19 | 131 | 3.2 | 6.4 | 0.00 | 0.00 | 0.00 | 36 | 1005.7 |
| 20260504223130 | 19 | 208 | 4.8 | 6.4 | 0.00 | 0.00 | 0.00 | 35 | 1005.7 |
| 20260504222628 | 20 | 156 | 1.6 | 1.6 | 0.00 | 0.00 | 0.00 | 34 | 1005.8 |
| 20260504222125 | 20 | 153 | 1.6 | 1.6 | 0.00 | 0.00 | 0.00 | 33 | 1005.5 |
| 20260504221622 | 20 | 93 | 1.6 | 1.6 | 0.00 | 0.00 | 0.00 | 33 | 1005.6 |
| 20260504221119 | 20 | 193 | 8.0 | 11.3 | 0.00 | 0.00 | 0.00 | 31 | 1005.4 |
| 20260504220615 | 21 | 121 | 0.0 | 0.0 | 0.00 | 0.00 | 0.00 | 31 | 1005.6 |
| 20260504220113 | 21 | 35 | 3.2 | 3.2 | 0.00 | 0.00 | 0.00 | 31 | 1005.4 |
| 20260504215609 | 20 | 162 | 1.6 | 1.6 | 0.00 | 0.00 | 0.00 | 30 | 1005.7 |
| 20260504215107 | 20 | 130 | 1.6 | 3.2 | 0.00 | 0.00 | 0.00 | 30 | 1005.5 |
| 20260504214602 | 20 | 94 | 0.0 | 1.6 | 0.00 | 0.00 | 0.00 | 32 | 1005.5 |
| 20260504214059 | 21 | 42 | 4.8 | 4.8 | 0.00 | 0.00 | 0.00 | 30 | 1005.6 |
| 20260504213555 | 20 | 139 | 1.6 | 1.6 | 0.00 | 0.00 | 0.00 | 29 | 1005.4 |
| 20260504213053 | 21 | 106 | 1.6 | 1.6 | 0.00 | 0.00 | 0.00 | 31 | 1005.7 |
| 20260504212548 | 21 | 124 | 0.0 | 0.0 | 0.00 | 0.00 | 0.00 | 31 | 1005.5 |
| 20260504212046 | 21 | 337 | 3.2 | 4.8 | 0.00 | 0.00 | 0.00 | 29 | 1005.7 |
| 20260504211543 | 21 | 283 | 6.4 | 9.7 | 0.00 | 0.00 | 0.00 | 29 | 1005.6 |
| 20260504211040 | 21 | 199 | 1.6 | 3.2 | 0.00 | 0.00 | 0.00 | 29 | 1005.5 |
| 20260504210537 | 21 | 184 | 4.8 | 4.8 | 0.00 | 0.00 | 0.00 | 28 | 1005.4 |
| 20260504210033 | 22 | 132 | 0.0 | 0.0 | 0.00 | 0.00 | 0.00 | 28 | 1005.5 |
| 20260504205531 | 22 | 92 | 3.2 | 4.8 | 0.00 | 0.00 | 0.00 | 28 | 1005.2 |
| 20260504205029 | 22 | 114 | 0.0 | 1.6 | 0.00 | 0.00 | 0.00 | 28 | 1005.3 |
| 20260504204527 | 22 | 27 | 6.4 | 9.7 | 0.00 | 0.00 | 0.00 | 27 | 1005.4 |
| 20260504204026 | 22 | 212 | 3.2 | 3.2 | 0.00 | 0.00 | 0.00 | 28 | 1005.3 |
| 20260504203523 | 21 | 276 | 6.4 | 6.4 | 0.00 | 0.00 | 0.00 | 28 | 1005.4 |
| 20260504203020 | 22 | 129 | 0.0 | 0.0 | 0.00 | 0.00 | 0.00 | 29 | 1005.6 |
| 20260504202516 | 21 | 107 | 4.8 | 6.4 | 0.00 | 0.00 | 0.00 | 28 | 1005.5 |
| 20260504202013 | 22 | 206 | 6.4 | 11.3 | 0.00 | 0.00 | 0.00 | 27 | 1005.4 |
| 20260504201510 | 21 | 61 | 1.6 | 1.6 | 0.00 | 0.00 | 0.00 | 27 | 1005.4 |
| 20260504201008 | 21 | 126 | 0.0 | 0.0 | 0.00 | 0.00 | 0.00 | 29 | 1005.4 |
| 20260504200504 | 21 | 227 | 1.6 | 3.2 | 0.00 | 0.00 | 0.00 | 27 | 1005.4 |
| 20260504200000 | 21 | 149 | 9.7 | 12.9 | 0.00 | 0.00 | 0.00 | 27 | 1005.7 |
| 20260504195456 | 21 | 1 | 12.9 | 14.5 | 0.00 | 0.00 | 0.00 | 26 | 1005.4 |
| 20260504194953 | 21 | 230 | 4.8 | 6.4 | 0.00 | 0.00 | 0.00 | 27 | 1005.7 |
| 20260504194449 | 21 | 200 | 1.6 | 3.2 | 0.00 | 0.00 | 0.00 | 28 | 1005.8 |
| 20260504193945 | 21 | 176 | 1.6 | 3.2 | 0.00 | 0.00 | 0.00 | 29 | 1005.7 |
| 20260504193443 | 21 | 154 | 1.6 | 3.2 | 0.00 | 0.00 | 0.00 | 28 | 1005.6 |
| 20260504192942 | 21 | 154 | 1.6 | 3.2 | 0.00 | 0.00 | 0.00 | 29 | 1005.5 |
| 20260504192438 | 21 | 13 | 6.4 | 9.7 | 0.00 | 0.00 | 0.00 | 27 | 1005.6 |
| 20260504191937 | 21 | 213 | 9.7 | 17.7 | 0.00 | 0.00 | 0.00 | 27 | 1005.8 |
| 20260504191435 | 21 | 121 | 4.8 | 12.9 | 0.00 | 0.00 | 0.00 | 27 | 1005.6 |
| 20260504190935 | 21 | 124 | 6.4 | 11.3 | 0.00 | 0.00 | 0.00 | 27 | 1005.9 |
| 20260504190432 | 21 | 45 | 3.2 | 4.8 | 0.00 | 0.00 | 0.00 | 27 | 1005.7 |
| 20260504185928 | 21 | 154 | 8.0 | 14.5 | 0.00 | 0.00 | 0.00 | 26 | 1006.0 |
| 20260504185426 | 21 | 209 | 3.2 | 4.8 | 0.00 | 0.00 | 0.00 | 25 | 1005.9 |
| 20260504184921 | 21 | 215 | 6.4 | 11.3 | 0.00 | 0.00 | 0.00 | 28 | 1006.2 |
| 20260504184417 | 21 | 156 | 11.3 | 14.5 | 0.00 | 0.00 | 0.00 | 25 | 1005.9 |
| 20260504183914 | 21 | 226 | 3.2 | 4.8 | 0.00 | 0.00 | 0.00 | 27 | 1006.0 |
| 20260504183411 | 21 | 27 | 9.7 | 11.3 | 0.00 | 0.00 | 0.00 | 25 | 1006.0 |
| 20260504182909 | 21 | 352 | 3.2 | 4.8 | 0.00 | 0.00 | 0.00 | 28 | 1006.1 |
| 20260504182406 | 21 | 166 | 11.3 | 12.9 | 0.00 | 0.00 | 0.00 | 26 | 1006.2 |
| 20260504181902 | 21 | 34 | 1.6 | 3.2 | 0.00 | 0.00 | 0.00 | 27 | 1006.1 |
| 20260504181400 | 21 | 42 | 3.2 | 4.8 | 0.00 | 0.00 | 0.00 | 26 | 1006.2 |
| 20260504180858 | 21 | 221 | 11.3 | 16.1 | 0.00 | 0.00 | 0.00 | 26 | 1005.9 |
| 20260504180356 | 21 | 331 | 6.4 | 11.3 | 0.00 | 0.00 | 0.00 | 28 | 1006.5 |
| 20260504175854 | 21 | 118 | 1.6 | 1.6 | 0.00 | 0.00 | 0.00 | 28 | 1006.5 |
| 20260504175351 | 21 | 132 | 12.9 | 14.5 | 0.00 | 0.00 | 0.00 | 26 | 1006.5 |
| 20260504174849 | 21 | 212 | 3.2 | 9.7 | 0.00 | 0.00 | 0.00 | 28 | 1006.4 |
| 20260504174346 | 21 | 117 | 1.6 | 3.2 | 0.00 | 0.00 | 0.00 | 30 | 1006.5 |
| 20260504173843 | 21 | 264 | 8.0 | 20.9 | 0.00 | 0.00 | 0.00 | 30 | 1006.5 |
| 20260504173340 | 21 | 208 | 11.3 | 14.5 | 0.00 | 0.00 | 0.00 | 28 | 1006.7 |
| 20260504172837 | 21 | 62 | 3.2 | 4.8 | 0.00 | 0.00 | 0.00 | 28 | 1006.6 |
| 20260504172333 | 20 | 128 | 1.6 | 3.2 | 0.00 | 0.00 | 0.00 | 31 | 1006.6 |
| 20260504171829 | 20 | 283 | 6.4 | 12.9 | 0.00 | 0.00 | 0.00 | 28 | 1006.4 |
| 20260504171327 | 20 | 326 | 4.8 | 6.4 | 0.00 | 0.00 | 0.00 | 26 | 1006.8 |
| 20260504170824 | 20 | 202 | 11.3 | 20.9 | 0.00 | 0.00 | 0.00 | 27 | 1006.3 |
| 20260504170320 | 20 | 317 | 4.8 | 9.7 | 0.00 | 0.00 | 0.00 | 28 | 1006.8 |
| 20260504160239 | 19 | 350 | 9.7 | 14.5 | 0.00 | 0.00 | 0.00 | 31 | 1007.3 |
| 20260504150704 | 18 | 335 | 8.0 | 12.9 | 0.00 | 0.00 | 0.00 | 32 | 1007.8 |
| 20260504150201 | 18 | 212 | 6.4 | 9.7 | 0.00 | 0.00 | 0.00 | 32 | 1008.0 |
| 20260504141130 | 17 | 90 | 3.2 | 3.2 | 0.00 | 0.00 | 0.00 | 36 | 1007.9 |
| 20260504140627 | 17 | 206 | 3.2 | 4.8 | 0.00 | 0.00 | 0.00 | 39 | 1008.3 |
| 20260504140122 | 16 | 186 | 4.8 | 6.4 | 0.00 | 0.00 | 0.00 | 37 | 1008.6 |
| 20260504130550 | 14 | 144 | 3.2 | 4.8 | 0.00 | 0.00 | 0.00 | 41 | 1009.0 |
| 20260504110438 | 5 | 142 | 0.0 | 0.0 | 0.00 | 0.00 | 0.00 | 70 | 1009.4 |
| 20260504100355 | 5 | 124 | 0.0 | 0.0 | 0.00 | 0.00 | 0.00 | 70 | 1009.6 |
| 20260504081748 | 6 | 141 | 0.0 | 0.0 | 0.00 | 0.00 | 0.00 | 68 | 1009.4 |
| 20260504081244 | 6 | 141 | 0.0 | 0.0 | 0.00 | 0.00 | 0.00 | 67 | 1009.1 |
| 20260504080741 | 6 | 141 | 0.0 | 0.0 | 0.00 | 0.00 | 0.00 | 65 | 1009.2 |
| 20260504080237 | 6 | 141 | 0.0 | 0.0 | 0.00 | 0.00 | 0.00 | 66 | 1009.1 |
| 20260504070205 | 7 | 110 | 0.0 | 0.0 | 0.00 | 0.00 | 0.00 | 55 | 1008.8 |
| 20260504060125 | 7 | 124 | 0.0 | 0.0 | 0.00 | 0.00 | 0.00 | 57 | 1009.1 |
| 20260504050554 | 5 | 114 | 0.0 | 0.0 | 0.00 | 0.00 | 0.00 | 66 | 1008.8 |
| 20260504045548 | 5 | 114 | 0.0 | 0.0 | 0.00 | 0.00 | 0.00 | 67 | 1009.1 |
| 20260504045043 | 5 | 114 | 0.0 | 0.0 | 0.00 | 0.00 | 0.00 | 68 | 1009.1 |
| 20260504044540 | 4 | 113 | 0.0 | 0.0 | 0.00 | 0.00 | 0.00 | 66 | 1009.2 |
| 20260504044037 | 3 | 115 | 0.0 | 0.0 | 0.00 | 0.00 | 0.00 | 69 | 1009.3 |
| 20260504043534 | 3 | 114 | 0.0 | 0.0 | 0.00 | 0.00 | 0.00 | 71 | 1009.3 |
| 20260504043032 | 2 | 133 | 0.0 | 0.0 | 0.00 | 0.00 | 0.00 | 71 | 1009.3 |
| 20260504042529 | 2 | 135 | 0.0 | 0.0 | 0.00 | 0.00 | 0.00 | 72 | 1009.1 |
| 20260504042026 | 2 | 117 | 0.0 | 0.0 | 0.00 | 0.00 | 0.00 | 72 | 1009.1 |
| 20260504041521 | 2 | 117 | 0.0 | 0.0 | 0.00 | 0.00 | 0.00 | 71 | 1009.1 |
| 20260504041017 | 3 | 118 | 0.0 | 0.0 | 0.00 | 0.00 | 0.00 | 71 | 1008.8 |
| 20260504040515 | 3 | 117 | 0.0 | 0.0 | 0.00 | 0.00 | 0.00 | 70 | 1008.9 |
| 20260504040012 | 3 | 117 | 0.0 | 0.0 | 0.00 | 0.00 | 0.00 | 69 | 1008.9 |
| 20260504035509 | 3 | 129 | 0.0 | 0.0 | 0.00 | 0.00 | 0.00 | 67 | 1008.8 |
| 20260504035005 | 3 | 126 | 0.0 | 0.0 | 0.00 | 0.00 | 0.00 | 68 | 1008.8 |
| 20260504034503 | 3 | 150 | 1.6 | 1.6 | 0.00 | 0.00 | 0.00 | 68 | 1008.8 |
| 20260504034000 | 2 | 131 | 0.0 | 0.0 | 0.00 | 0.00 | 0.00 | 69 | 1008.7 |
| 20260504033457 | 2 | 105 | 1.6 | 1.6 | 0.00 | 0.00 | 0.00 | 74 | 1008.8 |
| 20260504032954 | 2 | 132 | 0.0 | 0.0 | 0.00 | 0.00 | 0.00 | 77 | 1008.6 |
| 20260504032451 | 1 | 132 | 0.0 | 0.0 | 0.00 | 0.00 | 0.00 | 77 | 1008.6 |
| 20260504031948 | 1 | 132 | 0.0 | 0.0 | 0.00 | 0.00 | 0.00 | 77 | 1008.6 |
| 20260504031445 | 1 | 132 | 0.0 | 0.0 | 0.00 | 0.00 | 0.00 | 78 | 1008.6 |
| 20260504030941 | 1 | 132 | 0.0 | 0.0 | 0.00 | 0.00 | 0.00 | 78 | 1008.5 |
| 20260504030439 | 1 | 132 | 0.0 | 0.0 | 0.00 | 0.00 | 0.00 | 77 | 1008.5 |
| 20260504025934 | 1 | 132 | 0.0 | 0.0 | 0.00 | 0.00 | 0.00 | 76 | 1008.6 |
| 20260504025431 | 1 | 132 | 0.0 | 0.0 | 0.00 | 0.00 | 0.00 | 76 | 1008.5 |
| 20260504024928 | 1 | 132 | 0.0 | 0.0 | 0.00 | 0.00 | 0.00 | 74 | 1008.4 |
| 20260504024425 | 2 | 132 | 0.0 | 0.0 | 0.00 | 0.00 | 0.00 | 73 | 1008.5 |
| 20260504023922 | 2 | 132 | 0.0 | 0.0 | 0.00 | 0.00 | 0.00 | 72 | 1008.4 |
| 20260504023419 | 2 | 132 | 0.0 | 0.0 | 0.00 | 0.00 | 0.00 | 72 | 1008.7 |
| 20260504022914 | 2 | 132 | 0.0 | 0.0 | 0.00 | 0.00 | 0.00 | 71 | 1008.4 |
| 20260504022411 | 2 | 132 | 0.0 | 0.0 | 0.00 | 0.00 | 0.00 | 70 | 1008.4 |
| 20260504021908 | 2 | 132 | 0.0 | 0.0 | 0.00 | 0.00 | 0.00 | 70 | 1008.4 |
| 20260504021405 | 2 | 132 | 0.0 | 0.0 | 0.00 | 0.00 | 0.00 | 69 | 1008.4 |
| 20260504020903 | 2 | 132 | 0.0 | 0.0 | 0.00 | 0.00 | 0.00 | 69 | 1008.4 |
| 20260504020359 | 3 | 132 | 0.0 | 0.0 | 0.00 | 0.00 | 0.00 | 68 | 1008.4 |
| 20260504015855 | 3 | 132 | 0.0 | 0.0 | 0.00 | 0.00 | 0.00 | 67 | 1008.5 |
| 20260504015351 | 3 | 132 | 0.0 | 0.0 | 0.00 | 0.00 | 0.00 | 67 | 1008.7 |
| 20260504014847 | 3 | 132 | 0.0 | 0.0 | 0.00 | 0.00 | 0.00 | 67 | 1008.3 |
| 20260504014343 | 3 | 132 | 0.0 | 0.0 | 0.00 | 0.00 | 0.00 | 67 | 1008.2 |
| 20260504013841 | 3 | 132 | 0.0 | 0.0 | 0.00 | 0.00 | 0.00 | 66 | 1008.3 |
| 20260504013339 | 3 | 132 | 0.0 | 0.0 | 0.00 | 0.00 | 0.00 | 66 | 1008.0 |
| 20260504012835 | 3 | 132 | 0.0 | 0.0 | 0.00 | 0.00 | 0.00 | 65 | 1008.1 |
| 20260504012333 | 3 | 132 | 0.0 | 0.0 | 0.00 | 0.00 | 0.00 | 65 | 1008.1 |
| 20260504011830 | 4 | 132 | 0.0 | 0.0 | 0.00 | 0.00 | 0.00 | 63 | 1008.2 |
| 20260504011327 | 4 | 132 | 0.0 | 0.0 | 0.00 | 0.00 | 0.00 | 64 | 1008.1 |
| 20260504010823 | 4 | 132 | 0.0 | 0.0 | 0.00 | 0.00 | 0.00 | 63 | 1008.1 |
| 20260504010318 | 4 | 132 | 0.0 | 0.0 | 0.00 | 0.00 | 0.00 | 61 | 1007.9 |
| 20260504005815 | 5 | 132 | 0.0 | 0.0 | 0.00 | 0.00 | 0.00 | 60 | 1007.9 |
| 20260504005312 | 5 | 132 | 0.0 | 0.0 | 0.00 | 0.00 | 0.00 | 61 | 1007.7 |
| 20260504004810 | 5 | 132 | 0.0 | 0.0 | 0.00 | 0.00 | 0.00 | 60 | 1007.8 |
| 20260504004307 | 5 | 132 | 0.0 | 0.0 | 0.00 | 0.00 | 0.00 | 58 | 1007.6 |